Find Starlink 32112

NORAD ID: 60136 Int'l Des: 2024-120 Owner: SPXS Country: US Constellation: starlink operational
LEOCIRCULAR

Live-Position

3D-Globus wird geladen...

Über Starlink 32112

Beschreibung wird geladen...

Nächste Überflüge

Passes for default location (London). Set your location on the main map for personalized predictions.

Höhenverlauf

Loading altitude history...

Zweizeiliger Elementsatz

1 60136U 24120B 26126.95911262 -.00000190 00000-0 56938-5 0 9994
2 60136 53.1595 49.5448 0001082 95.4693 264.6432 15.30186185105378
Epoch: 6. Mai 2026 • Age: 8 hours

Aktueller Status

Höhe 480.3 km
Geschwindigkeit 7.63 km/s
Subsatellitenpunkt 49.63°N, 168.32°W
Startdatum 27. Juni 2024
Alter 1.8 years
Typ internet

Technische Details

Klassifizierung Payload
Masse 730.00 kg
Trockenmasse 700.00 kg
Gesamtmasse 730.00 kg
Länge 0.30 m
Durchmesser 4.10 m
Spannweite 29.00 m
Form Box + pan
Hersteller SPXS
Bus-Typ Starlink V2M
Phasenstatus In Orbit
Besitzer/Staat SPXS/US

Most Searched